Temperature
5 5 5 5 5 5 5 5 5 5 5 5 5 5 5 5 5 5 5 5 5 5 5 5 5 5 5 5 5 5 5 5 5 5 5 5 5 5 5 5 5 5 4
4 4 4 4 4 4 4 4 4 4 4 5 5 5 5 5 5 5 5 5 5 5 5 5 5 5 5 5 5 5 5 5 5 5 5 4 4 4 4 4 4 4 4
4 4 4 4 4 4 4 4 4 4 4 4 4 4 4 4 4 4 4 4 4 4 4 4 4 4 4 4 4 4 4 4 4 4 4 4 4 4 3 3 3 3 3
3 3 4 4 4 4 4 4 4 4 4 4 4 4 4 4 4 4 4 4 4 4 4 4 4 4 4 4 4 4 4 4 4 4 4 3 3 3 3 3 3 3 3
3 3 3 3 3 3 3 3 3 3 3 3 3 3 3 3 3 3 3 3 3 3 3 3 3 3 3 3 3 3 3 3 3 3 3 3 3 2 2 2 2 2 2
2 3 3 3 3 3 3 3 3 3 3 3 3 3 3 3 3 3 3 3 3 3 3 3 3 3 3 3 3 3 3 3 3 2 2 2 2 2 2 2 2 1 1
2 2 2 2 2 2 2 2 2 2 2 2 2 2 2 2 2 2 2 2 2 2 2 2 2 2 2 2 2 2 2 2 2 2 2 2 2 2 2 1 1 1 1
1 1 1 1 2 2 2 1 1 1 1 1 1 1 1 1 1 1 1 1 1 1 1 1 2 2 2 2 2 2 2 1 1 1 1 1 1 1 1 1 0 0 0
1 1 1 1 1 1 1 1 1 1 1 1 1 1 1 1 1 1 1 1 1 1 1 1 1 1 1 1 1 1 1 1 1 1 1 1 1 0 0 -0 -0 -0 -0
0 0 0 0 0 0 0 0 0 0 0 0 -0 0 -0 -0 -0 0 0 0 0 0 0 0 0 0 0 0 0 0 0 0 0 0 0 0 -0 -0 -0 -1 -1 -1 -1
-0 -0 -0 -0 -0 -0 -0 -0 -0 -0 -0 -0 -0 -0 -1 -1 -0 -0 -0 -1 -1 -0 -0 -0 -0 -0 -0 -0 -0 -0 -0 -0 -0 -1 -1 -1 -1 -1 -1 -1 -1 -2 -2
-1 -1 -1 -1 -1 -1 -1 -1 -1 -1 -1 -1 -1 -1 -1 -1 -1 -1 -1 -1 -1 -1 -1 -1 -1 -1 -1 -1 -1 -1 -1 -1 -1 -1 -1 -2 -2 -1 -2 -2 -2 -2 -2
-1 -1 -1 -1 -1 -1 -2 -2 -2 -2 -2 -2 -2 -2 -2 -2 -2 -2 -2 -2 -2 -2 -1 -1 -1 -1 -1 -1 -1 -1 -1 -1 -2 -2 -2 -2 -2 -2 -2 -3 -2 -2 -3
-2 -2 -2 -2 -2 -2 -2 -2 -2 -2 -2 -2 -2 -2 -3 -2 -2 -2 -2 -2 -2 -2 -2 -2 -2 -2 -2 -2 -2 -2 -2 -2 -2 -3 -3 -3 -3 -3 -3 -3 -3 -3 -3
-3 -3 -3 -3 -3 -3 -3 -3 -3 -3 -3 -3 -3 -3 -3 -3 -3 -3 -3 -3 -3 -2 -2 -2 -2 -2 -2 -3 -3 -3 -3 -3 -3 -3 -3 -3 -3 -4 -4 -4 -4 -4 -4
-4 -4 -4 -4 -4 -4 -4 -3 -3 -3 -3 -3 -3 -3 -3 -3 -3 -3 -3 -3 -3 -3 -3 -3 -3 -3 -3 -3 -4 -4 -4 -4 -4 -4 -4 -4 -4 -4 -4 -4 -4 -5 -5
-4 -4 -4 -4 -4 -4 -4 -4 -4 -4 -4 -4 -4 -4 -4 -4 -3 -3 -3 -3 -3 -3 -3 -4 -4 -4 -4 -4 -4 -4 -4 -4 -4 -4 -4 -4 -5 -5 -5 -5 -5 -5 -5
-5 -5 -5 -5 -5 -5 -5 -5 -5 -5 -4 -4 -4 -4 -4 -4 -4 -4 -4 -4 -4 -4 -4 -4 -4 -4 -4 -4 -4 -4 -5 -5 -5 -5 -5 -5 -5 -5 -5 -6 -6 -6 -6
-5 -5 -5 -5 -5 -5 -5 -5 -5 -5 -5 -5 -5 -5 -5 -5 -5 -5 -5 -5 -5 -5 -5 -5 -5 -5 -5 -5 -5 -5 -5 -5 -5 -5 -5 -6 -6 -6 -6 -6 -6 -6 -6
-6 -6 -6 -6 -6 -6 -6 -6 -6 -6 -6 -6 -6 -6 -6 -5 -5 -5 -5 -5 -5 -5 -5 -5 -5 -5 -5 -5 -5 -5 -6 -6 -6 -6 -6 -6 -6 -6 -6 -6 -6 -7 -7
-6 -6 -6 -6 -6 -6 -6 -6 -6 -6 -6 -6 -6 -6 -6 -6 -6 -6 -6 -6 -6 -6 -6 -6 -6 -6 -6 -6 -6 -6 -6 -6 -6 -6 -6 -6 -7 -7 -7 -7 -7 -7 -7
-7 -7 -7 -7 -7 -7 -7 -7 -7 -7 -7 -7 -7 -7 -7 -7 -7 -7 -7 -6 -6 -6 -6 -6 -6 -6 -6 -6 -6 -7 -7 -7 -7 -7 -7 -7 -7 -7 -7 -7 -7 -7 -8
-8 -8 -8 -8 -8 -8 -8 -8 -8 -7 -7 -7 -7 -7 -7 -7 -7 -7 -7 -7 -7 -7 -7 -7 -7 -7 -7 -7 -7 -7 -7 -7 -7 -7 -7 -7 -7 -7 -8 -8 -8 -8 -8
-8 -8 -8 -8 -8 -8 -8 -8 -8 -8 -8 -8 -8 -8 -8 -8 -8 -8 -8 -7 -7 -7 -7 -7 -7 -7 -7 -7 -7 -7 -7 -7 -7 -8 -8 -8 -8 -8 -8 -8 -8 -8 -8
-9 -9 -9 -9 -9 -8 -8 -8 -8 -8 -8 -8 -8 -8 -8 -8 -8 -8 -8 -8 -8 -8 -8 -8 -7 -8 -8 -8 -8 -8 -8 -8 -8 -8 -8 -8 -8 -8 -8 -8 -8 -8 -9
-9 -9 -9 -9 -9 -9 -9 -9 -9 -9 -9 -9 -9 -9 -9 -8 -8 -8 -8 -8 -8 -8 -8 -8 -8 -8 -8 -8 -8 -8 -8 -8 -8 -8 -8 -8 -8 -8 -8 -9 -9 -9 -9
Wind_Speed
1 1 1 1 1 1 1 1 2 1 2 2 3 3 3 3 3 3 3 4 4 4 4 5 5 4 3 3 3 3 3 3 3 2 1 1 3 4 5 7 7 7 7
2 1 1 1 0 1 1 1 1 1 1 1 2 2 3 3 3 4 4 4 5 5 4 4 4 4 4 3 3 4 3 3 3 3 2 2 3 4 4 4 5 6 7
2 2 1 1 0 0 0 1 1 1 1 1 1 2 2 2 2 3 4 4 4 4 5 5 5 4 4 3 4 4 3 3 3 3 3 2 1 2 2 2 3 4 6
2 2 2 1 1 1 0 0 0 1 1 1 1 1 1 1 2 2 3 3 3 3 3 4 4 5 5 5 4 4 3 3 3 3 2 2 1 2 2 2 2 2 3
2 2 2 1 1 1 1 1 1 1 0 1 1 1 1 1 2 2 2 3 3 2 2 2 3 4 5 5 4 4 4 3 3 3 3 2 3 3 3 3 3 2 3
2 2 2 2 1 1 1 1 1 1 1 1 0 1 1 1 1 2 2 2 2 3 2 2 2 3 4 5 6 6 6 6 5 4 4 4 5 4 3 3 3 2 3
2 2 2 2 1 1 1 1 0 0 1 1 1 1 1 1 1 2 2 2 2 2 2 2 2 2 3 3 4 5 6 8 8 6 6 6 5 5 5 4 4 4 5
2 2 2 2 2 1 1 1 1 0 1 1 1 1 1 1 1 1 1 2 2 2 2 3 3 3 3 3 3 3 3 4 6 6 6 6 5 5 5 5 5 3 2
2 3 2 2 2 2 1 2 1 1 1 1 1 1 2 2 2 2 2 2 2 2 2 2 3 3 4 4 4 4 4 4 4 5 6 6 8 8 7 3 3 3 4
3 3 2 2 2 2 2 2 2 1 2 1 2 2 2 2 2 2 2 2 2 2 2 3 4 4 5 5 5 5 5 4 3 3 3 4 4 5 7 6 5 4 3
3 3 3 2 2 2 2 2 2 1 1 1 2 2 2 2 2 2 2 2 2 2 2 3 3 5 6 6 5 5 6 5 3 3 3 3 2 3 4 5 5 5 4
3 3 3 3 3 3 2 2 2 1 1 1 1 2 1 1 1 2 3 3 2 2 3 3 3 5 6 6 5 5 5 3 3 3 3 3 3 3 3 3 4 4 5
3 3 3 3 3 3 2 2 2 1 1 1 1 2 2 1 1 3 3 3 2 2 2 3 4 4 4 4 4 4 4 3 3 3 4 3 3 3 2 2 2 2 2
3 3 3 3 3 3 2 2 2 2 2 2 1 1 2 1 1 1 2 2 2 2 1 2 3 2 2 2 2 2 2 3 3 3 3 2 2 2 2 2 2 2 1
3 4 4 3 3 3 3 3 2 2 2 2 2 2 2 2 3 4 3 2 2 2 1 1 0 0 0 1 0 1 1 2 2 2 2 2 2 2 2 2 2 2 2
4 4 4 3 3 3 3 3 5 4 4 3 3 3 3 4 4 4 4 4 3 2 1 1 1 1 1 1 1 1 1 1 1 2 2 2 2 2 2 2 2 2 3
4 4 3 3 3 3 3 3 3 5 5 5 4 3 3 4 4 3 3 3 2 1 1 1 2 1 1 1 1 1 1 1 1 1 2 2 2 2 2 2 2 2 3
4 4 4 3 3 3 3 3 3 3 3 4 4 5 5 4 4 3 3 2 1 1 0 1 1 1 1 1 1 1 1 1 1 1 1 2 2 2 2 3 3 3 3
5 4 4 3 3 3 3 3 3 3 3 3 3 4 6 5 5 5 4 2 1 1 1 1 1 1 1 1 1 1 1 1 1 1 2 2 2 2 2 3 3 4 4
4 6 6 4 3 3 3 3 3 3 3 3 3 3 3 4 3 3 3 2 1 1 1 1 2 1 1 1 1 1 1 1 1 1 2 2 2 2 3 3 3 3 3
4 5 7 5 4 3 3 3 3 3 3 3 3 5 6 3 3 3 3 2 2 2 2 2 2 2 1 1 1 1 2 2 2 2 2 2 2 2 3 3 3 3 3
4 4 4 4 4 4 4 3 3 3 3 3 3 4 6 4 3 3 3 3 2 2 2 2 2 2 2 2 2 2 2 2 2 2 2 2 2 2 3 3 3 3 3
4 4 4 4 4 5 5 3 3 3 3 3 4 4 4 3 3 3 3 3 3 3 3 3 2 2 2 2 3 2 2 3 3 3 3 2 2 3 3 3 3 3 3
4 4 4 4 4 4 4 4 4 4 4 4 4 3 3 3 3 4 4 3 3 3 4 3 3 3 3 3 3 4 4 5 5 4 4 3 3 3 3 3 3 4 4
4 4 4 4 4 4 4 4 4 4 4 4 4 4 4 4 4 4 4 3 3 3 4 4 4 4 4 4 4 5 6 6 6 5 5 4 4 4 4 4 3 3 3
4 4 4 4 4 4 4 4 4 4 4 4 4 4 4 4 4 4 3 3 4 4 4 4 5 5 5 5 6 6 7 7 7 7 5 4 3 4 4 4 4 4 4
Wind_Direction
2 170 143 150 186 186 178 184 198 206 198 197 197 191 194 196 192 192 196 199 206 212 211 210 214 202 201 203 203 204 208 193 215 238 216 183 181 185 193 202 211 212 221
12 37 125 131 141 175 175 192 209 194 187 183 184 190 198 202 201 200 206 208 209 211 212 209 215 206 206 204 200 205 210 204 195 215 222 202 206 197 187 193 208 218 219
28 29 41 60 52 218 193 206 206 175 158 165 178 195 202 209 210 212 209 210 212 213 210 209 210 201 208 207 202 206 210 213 197 195 209 209 212 196 182 202 210 220 227
25 33 22 1 344 338 347 34 114 154 149 163 184 193 202 213 216 213 207 208 207 209 205 204 204 206 207 202 204 206 200 197 189 187 196 200 204 209 176 199 230 226 233
15 12 358 352 2 2 5 19 36 38 56 169 166 193 188 201 221 212 209 208 203 208 208 207 209 209 208 203 202 195 189 193 192 198 206 209 205 197 207 204 219 230 241
0 356 357 0 9 4 2 28 39 27 7 14 159 195 207 229 215 208 206 206 204 200 205 212 213 208 208 209 209 202 198 199 204 207 217 216 220 209 197 201 203 220 255
353 352 356 358 6 359 343 2 11 325 334 331 306 244 232 248 212 206 205 196 199 202 201 207 224 221 204 203 211 212 218 220 216 213 216 222 217 209 198 207 209 221 236
351 348 356 5 350 334 330 323 307 286 257 264 272 277 288 301 271 230 210 198 196 205 208 206 209 211 207 196 197 209 227 234 228 222 221 225 223 207 201 208 213 225 266
353 351 355 350 337 321 305 291 292 277 275 271 264 252 261 282 278 243 208 209 209 219 217 214 211 213 218 205 199 214 234 249 243 230 227 224 221 217 205 195 199 211 251
347 347 346 340 334 315 301 297 295 277 258 263 275 258 250 262 265 245 223 214 221 230 230 224 227 231 225 211 207 209 224 233 217 219 225 230 221 218 217 209 203 214 234
355 353 351 349 342 328 309 306 292 284 285 277 277 276 258 264 269 249 235 230 232 237 241 241 238 238 238 232 228 224 229 227 211 213 222 228 228 223 221 216 208 212 220
357 356 353 351 347 342 332 324 318 301 291 279 283 292 285 272 277 259 250 251 256 241 245 250 249 243 244 241 239 236 229 222 205 204 216 227 227 229 226 216 218 225 228
359 359 358 357 356 354 352 343 330 329 311 296 288 291 306 320 301 303 285 283 279 270 262 262 263 253 251 246 242 234 221 208 202 207 219 230 227 224 206 211 222 229 261
1 358 356 1 357 359 357 353 343 332 313 299 290 285 299 314 313 284 275 284 304 311 301 287 283 271 275 258 239 231 227 211 206 213 220 227 218 215 220 221 224 212 247
3 357 356 359 357 358 1 358 346 342 312 299 285 277 274 280 287 294 282 267 261 264 291 316 288 250 259 275 292 272 215 195 208 208 207 210 217 220 229 220 212 213 230
3 0 355 354 353 352 349 353 5 354 351 344 329 309 302 300 302 299 299 298 294 270 279 219 238 245 237 238 237 268 261 214 210 196 195 205 215 221 227 227 223 222 235
2 354 348 346 347 344 341 340 339 350 1 358 349 340 330 323 319 314 314 309 281 279 269 229 236 239 246 251 248 255 271 255 201 190 199 205 209 219 225 225 224 229 239
359 351 348 345 344 342 341 338 336 336 339 346 352 355 352 348 350 354 359 5 350 3 345 260 262 261 248 244 249 272 282 276 253 225 218 212 210 220 228 230 228 234 247
354 354 354 351 346 343 345 342 338 342 342 340 347 353 360 1 8 10 8 13 339 329 333 325 303 280 265 249 249 247 247 245 242 239 233 228 224 228 234 236 237 247 254
352 353 353 346 342 344 345 342 340 342 344 344 342 341 349 356 358 355 357 344 334 322 319 311 301 288 277 255 245 243 245 244 238 238 240 236 231 230 233 237 239 244 251
348 347 347 346 344 342 341 340 338 338 338 338 337 337 341 344 337 332 332 333 325 316 312 306 299 295 287 270 247 243 245 246 241 235 226 228 230 236 239 241 245 249 254
343 341 342 341 341 342 339 337 336 335 335 335 334 335 339 344 337 332 332 332 330 321 314 303 293 286 278 259 249 241 240 243 240 230 227 231 233 238 241 243 246 251 249
340 338 339 337 336 336 339 339 341 337 332 331 330 332 335 338 337 332 330 329 328 328 323 314 307 305 293 272 257 244 241 244 243 235 233 236 236 240 243 243 243 250 249
342 339 336 336 339 340 338 340 340 335 332 332 331 329 328 329 328 327 328 326 325 322 316 310 300 293 288 284 274 264 256 252 247 234 223 231 237 243 246 248 250 250 247
342 337 335 335 336 336 336 336 335 334 333 331 329 327 328 326 323 322 322 321 319 317 314 308 298 289 277 272 270 267 269 269 264 250 230 222 235 239 243 245 248 251 248
337 335 335 334 332 330 329 330 331 332 330 327 325 323 321 318 315 315 317 316 316 314 312 307 298 290 282 274 271 272 273 273 269 265 252 227 231 240 241 245 244 243 243
Height
1470 1470 1470 1471 1471 1472 1472 1473 1474 1474 1475 1476 1477 1478 1479 1480 1481 1482 1484 1485 1487 1488 1490 1491 1493 1494 1496 1497 1499 1500 1501 1503 1503 1503 1505 1507 1508 1509 1510 1511 1512 1513 1514
1468 1468 1469 1469 1469 1470 1470 1471 1471 1472 1472 1473 1474 1475 1476 1477 1477 1479 1480 1481 1482 1484 1485 1487 1488 1490 1491 1493 1494 1496 1497 1498 1499 1499 1501 1502 1503 1504 1505 1507 1508 1508 1509
1467 1467 1467 1467 1467 1467 1468 1468 1469 1469 1469 1470 1471 1471 1472 1473 1474 1475 1476 1477 1478 1479 1481 1482 1484 1485 1487 1488 1490 1491 1492 1494 1495 1496 1497 1498 1499 1500 1501 1502 1503 1504 1505
1465 1465 1465 1465 1465 1465 1465 1465 1466 1466 1467 1467 1467 1468 1468 1469 1470 1471 1472 1473 1474 1475 1477 1478 1479 1481 1482 1484 1485 1486 1488 1489 1490 1491 1492 1493 1494 1495 1496 1497 1497 1499 1500
1463 1463 1463 1463 1463 1463 1463 1463 1463 1464 1464 1464 1464 1465 1465 1466 1466 1467 1468 1469 1470 1471 1472 1474 1475 1476 1478 1479 1480 1482 1483 1484 1486 1487 1487 1488 1489 1490 1491 1492 1493 1494 1494
1461 1461 1461 1461 1461 1461 1461 1461 1461 1461 1461 1461 1461 1462 1462 1462 1463 1464 1465 1465 1466 1467 1468 1469 1471 1472 1473 1475 1476 1477 1479 1480 1481 1482 1482 1483 1484 1485 1487 1487 1488 1489 1489
1460 1459 1459 1458 1458 1458 1459 1458 1458 1458 1458 1458 1458 1459 1459 1459 1459 1460 1461 1462 1462 1463 1464 1465 1466 1467 1468 1470 1471 1472 1473 1474 1476 1477 1478 1478 1479 1480 1482 1482 1483 1484 1484
1458 1457 1457 1456 1456 1456 1456 1456 1455 1455 1455 1455 1455 1455 1456 1456 1456 1457 1457 1458 1459 1459 1460 1461 1462 1462 1464 1465 1466 1467 1467 1469 1470 1471 1473 1473 1475 1476 1477 1478 1478 1479 1479
1456 1455 1455 1454 1454 1453 1453 1453 1452 1452 1452 1452 1452 1452 1452 1452 1453 1453 1454 1454 1455 1455 1456 1457 1457 1458 1459 1460 1461 1462 1463 1464 1465 1466 1467 1468 1469 1470 1472 1472 1473 1473 1472
1453 1453 1452 1452 1451 1451 1450 1450 1450 1449 1449 1449 1449 1449 1449 1449 1450 1450 1450 1451 1451 1451 1451 1452 1453 1454 1455 1455 1456 1457 1457 1458 1460 1461 1462 1462 1463 1464 1466 1467 1467 1467 1466
1452 1451 1450 1449 1449 1448 1448 1447 1447 1447 1446 1446 1446 1446 1446 1446 1447 1447 1447 1447 1447 1447 1447 1447 1448 1449 1450 1451 1452 1452 1452 1454 1454 1455 1456 1457 1458 1459 1459 1460 1461 1462 1462
1449 1448 1448 1447 1446 1446 1445 1444 1444 1444 1443 1443 1443 1443 1443 1443 1443 1443 1444 1444 1444 1444 1443 1444 1444 1445 1446 1446 1447 1447 1448 1449 1449 1450 1450 1451 1452 1453 1454 1455 1455 1456 1457
1447 1446 1445 1444 1444 1443 1443 1442 1441 1441 1441 1440 1440 1440 1440 1440 1440 1440 1440 1440 1440 1440 1440 1440 1441 1441 1441 1441 1442 1442 1443 1443 1444 1444 1445 1446 1447 1448 1449 1449 1450 1450 1450
1445 1444 1443 1442 1441 1441 1440 1440 1439 1439 1438 1438 1438 1437 1437 1437 1437 1437 1437 1437 1437 1437 1437 1437 1437 1437 1437 1437 1437 1437 1437 1438 1439 1440 1440 1441 1442 1443 1443 1444 1444 1444 1444
1443 1443 1442 1441 1440 1439 1438 1438 1437 1437 1437 1436 1436 1435 1434 1434 1434 1434 1434 1433 1433 1433 1433 1433 1433 1433 1433 1432 1432 1433 1433 1434 1435 1436 1436 1437 1437 1438 1438 1439 1439 1439 1439
1442 1441 1440 1439 1438 1437 1436 1436 1435 1435 1434 1434 1433 1433 1432 1432 1431 1431 1430 1430 1430 1430 1430 1429 1429 1429 1429 1429 1429 1429 1430 1430 1431 1431 1432 1432 1433 1433 1433 1434 1434 1434 1434
1441 1440 1439 1438 1437 1436 1435 1434 1432 1432 1431 1431 1430 1430 1430 1429 1428 1428 1427 1427 1427 1427 1427 1427 1426 1426 1426 1426 1426 1426 1426 1427 1427 1427 1428 1428 1429 1429 1429 1429 1429 1430 1430
1440 1439 1437 1436 1435 1434 1433 1432 1431 1430 1429 1428 1428 1427 1427 1426 1426 1425 1425 1425 1424 1425 1424 1424 1424 1424 1424 1424 1424 1424 1424 1424 1424 1424 1424 1424 1424 1425 1425 1425 1425 1425 1425
1438 1437 1436 1435 1434 1433 1432 1430 1429 1428 1427 1426 1426 1425 1425 1424 1424 1423 1423 1422 1422 1421 1421 1421 1421 1421 1421 1421 1421 1421 1421 1421 1421 1421 1421 1421 1421 1421 1421 1421 1421 1421 1422
1436 1435 1434 1433 1432 1431 1430 1429 1428 1427 1426 1425 1424 1424 1423 1422 1421 1421 1421 1420 1420 1419 1419 1419 1419 1419 1418 1418 1418 1418 1418 1417 1417 1417 1417 1417 1417 1417 1418 1417 1417 1417 1417
1435 1433 1433 1432 1431 1429 1428 1427 1426 1425 1425 1424 1423 1423 1422 1421 1420 1419 1419 1418 1418 1417 1417 1417 1416 1416 1416 1415 1415 1415 1414 1414 1414 1414 1414 1414 1414 1414 1414 1413 1413 1413 1413
1434 1432 1431 1430 1429 1428 1427 1426 1425 1424 1423 1422 1421 1421 1420 1419 1418 1417 1417 1416 1415 1415 1414 1414 1413 1413 1413 1412 1412 1412 1411 1411 1411 1411 1410 1410 1410 1410 1410 1409 1409 1409 1409
1433 1431 1430 1429 1428 1427 1425 1424 1424 1423 1422 1421 1420 1419 1418 1417 1416 1415 1415 1414 1413 1412 1412 1411 1410 1410 1410 1409 1409 1408 1408 1408 1407 1407 1407 1406 1406 1406 1406 1406 1405 1405 1405
1431 1430 1429 1428 1426 1425 1424 1423 1422 1421 1420 1419 1418 1417 1416 1415 1414 1413 1412 1411 1410 1410 1409 1408 1408 1407 1406 1406 1405 1405 1405 1404 1404 1403 1403 1403 1403 1402 1402 1402 1402 1402 1401
1430 1429 1428 1426 1425 1424 1423 1422 1421 1420 1419 1417 1416 1415 1414 1413 1412 1411 1410 1409 1408 1407 1406 1406 1405 1404 1403 1403 1402 1401 1401 1401 1400 1400 1400 1399 1399 1399 1399 1399 1398 1398 1398
1428 1427 1426 1425 1424 1422 1421 1420 1419 1418 1417 1416 1415 1413 1412 1411 1410 1409 1408 1407 1406 1404 1404 1403 1402 1401 1400 1399 1399 1398 1397 1397 1397 1396 1396 1396 1396 1395 1395 1395 1395 1394 1394